User: anonymous   Login
Location: Lawrence
(38.9720°N, 95.2350°W)
Time: 23:51:56
(UTC-05:00)
Language:

ALOS - Orbit

View from above orbital plane
View from above orbital plane
View from above satellite
View from above satellite

Ground track
Ground track

The orbit data is extracted from the following two-line orbital elements,

1 28931U 06002A   16209.86366455  .00000098  00000-0  28220-4 0  9997
2 28931  97.8814 246.7996 0000486  94.1711 265.9547 14.62217243560063
Epoch (UTC): 27 July 2016 20:43:40
Eccentricity: 0.0000486
inclination: 97.8814°
perigee height: 685 km
apogee height: 686 km
right ascension of ascending node: 246.7996°
argument of perigee: 94.1711°
revolutions per day: 14.62217243
mean anomaly at epoch: 265.9547°
orbit number at epoch: 56006

The dashed part of the orbit path shows where the satellite is in the earth's shadow,  

DLR